Weather History for Honolulu, HI

Change the Weather History Date:

Thursday, April 24, 2014

  Actual Average Record
Temperature  
Mean Temperature 79 °F 76 °F  
Max Temperature 85 °F 83 °F 89 °F (1996)
Min Temperature 73 °F 70 °F 60 °F (1979)
Degree Days  
Heating Degree Days 0 0  
Month to date heating degree days 0 0  
Since 1 July heating degree days 0 0  
Cooling Degree Days 14 11  
Month to date cooling degree days 295 264  
Year to date cooling degree days 1123 1039  
Growing Degree Days 28 (Base 50)    
Moisture  
Dew Point 64 °F    
Average Humidity 61    
Maximum Humidity 73    
Minimum Humidity 48    
Precipitation  
Precipitation 0.00 in 0.01 in 0.60 in (1971)
Month to date precipitation 0.17 0.54  
Year to date precipitation 6.46 6.86  
Snow  
Snow 0.00 in - - ()
Month to date snowfall 0.0  
Since 1 July snowfall 0.0  
Snow Depth 0.00 in    
Sea Level Pressure  
Sea Level Pressure 30.10 in    
Wind  
Wind Speed 14 mph (ENE)    
Max Wind Speed 20 mph    
Max Gust Speed 32 mph    
Visibility 10 miles    
Events Rain    
T = Trace of Precipitation, MM = Missing Value Source: NWS Daily Summary

Daily Weather History Graph

Daily Weather History Graph

Search for Another Location

Airport:

Trip Planner

Search our weather history database for the weather conditions in past years. The results will help you decide how hot, cold, wet, or windy it might be!

Date:

Astronomy

Apr. 24, 2014 Rise Set
Actual Time 6:05 AM HST 6:54 PM HST
Civil Twilight 5:42 AM HST 7:17 PM HST
Nautical Twilight 5:15 AM HST 7:44 PM HST
Astronomical Twilight 4:47 AM HST 8:12 PM HST
Moon 2:47 AM HST (4/24) 2:55 PM HST (4/24)
Length of Visible Light 13h 34m
Length of Day
12h 48m
Waning Crescent, 22% of the Moon is Illuminated
Apr 24
Waning Crescent
Apr 28
New
May 6
First Quarter
May 14
Full
May 21
Last Quarter

Hourly Weather History & Observations

Time (HST) Temp. Heat Index Dew Point Humidity Pressure Visibility Wind Dir Wind Speed Gust Speed Precip Events Conditions
12:53 AM 75.0 °F - 63.0 °F 66% 30.10 in 10.0 mi ENE 13.8 mph 23.0 mph 0.00 in   Scattered Clouds
1:53 AM 75.0 °F - 63.0 °F 66% 30.08 in 10.0 mi ENE 9.2 mph - N/A   Scattered Clouds
2:53 AM 75.0 °F - 63.0 °F 66% 30.07 in 10.0 mi NE 13.8 mph - N/A   Scattered Clouds
3:53 AM 75.0 °F - 63.0 °F 66% 30.06 in 10.0 mi ENE 12.7 mph - N/A   Mostly Cloudy
4:53 AM 73.9 °F - 64.0 °F 71% 30.07 in 10.0 mi ENE 13.8 mph - 0.00 in   Mostly Cloudy
5:53 AM 73.9 °F - 63.0 °F 68% 30.08 in 10.0 mi ENE 10.4 mph 18.4 mph N/A   Scattered Clouds
6:53 AM 75.0 °F - 63.0 °F 66% 30.10 in 10.0 mi East 11.5 mph - N/A   Scattered Clouds
7:53 AM 78.1 °F - 64.0 °F 62% 30.11 in 10.0 mi ENE 9.2 mph 19.6 mph 0.00 in   Mostly Cloudy
8:53 AM 79.0 °F - 64.0 °F 60% 30.13 in 10.0 mi NE 10.4 mph - N/A   Mostly Cloudy
9:53 AM 81.0 °F 82.2 °F 63.0 °F 54% 30.14 in 10.0 mi ENE 20.7 mph 27.6 mph N/A   Mostly Cloudy
10:53 AM 82.0 °F 83.0 °F 62.1 °F 51% 30.14 in 10.0 mi ENE 25.3 mph 32.2 mph N/A   Mostly Cloudy
11:53 AM 82.9 °F 83.7 °F 62.1 °F 49% 30.12 in 10.0 mi ENE 19.6 mph 26.5 mph N/A   Mostly Cloudy
12:53 PM 84.0 °F 84.9 °F 63.0 °F 49% 30.10 in 10.0 mi ENE 15.0 mph 25.3 mph N/A   Mostly Cloudy
1:53 PM 84.9 °F 86.1 °F 64.0 °F 49% 30.07 in 10.0 mi ENE 17.3 mph 28.8 mph N/A   Mostly Cloudy
2:53 PM 82.0 °F 83.4 °F 64.0 °F 54% 30.06 in 10.0 mi ENE 19.6 mph 25.3 mph N/A   Mostly Cloudy
3:53 PM 81.0 °F 82.2 °F 63.0 °F 54% 30.05 in 10.0 mi ENE 18.4 mph 27.6 mph N/A   Scattered Clouds
4:53 PM 80.1 °F 81.5 °F 63.0 °F 56% 30.05 in 10.0 mi ENE 17.3 mph 33.4 mph N/A   Mostly Cloudy
5:53 PM 78.1 °F - 64.9 °F 64% 30.06 in 10.0 mi ENE 19.6 mph 27.6 mph N/A   Mostly Cloudy
6:53 PM 77.0 °F - 64.9 °F 66% 30.08 in 10.0 mi ENE 13.8 mph 24.2 mph 0.00 in   Mostly Cloudy
7:53 PM 75.9 °F - 64.9 °F 69% 30.09 in 10.0 mi ENE 23.0 mph 29.9 mph N/A   Scattered Clouds
8:53 PM 75.0 °F - 66.0 °F 73% 30.12 in 10.0 mi ENE 13.8 mph 17.3 mph 0.00 in   Mostly Cloudy
9:53 PM 75.0 °F - 66.0 °F 73% 30.14 in 10.0 mi NE 16.1 mph - 0.00 in   Mostly Cloudy
10:53 PM 73.0 °F - 68.0 °F 84% 30.15 in 10.0 mi ENE 11.5 mph - 0.00 in   Mostly Cloudy
11:53 PM 73.9 °F - 66.0 °F 76% 30.14 in 10.0 mi ENE 9.2 mph - 0.00 in Rain Light Rain